GEFSMA_prec_meanprecacc_264.txt.gz
Total_Precipitation_Accumulation
2.65 2.71 2.71 2.77 2.54 2.63 2.99 3.09 2.87 3.07 3.12 2.91 2.67 2.42 2.34 2.15 2.04 2.07 2.16 2.09 2.06 2.18 2.50 2.71 2.58 2.44 2.19 1.93 1.74 1.66 1.60 1.47 1.38 1.17 0.98 0.97 1.06 1.04 0.91 0.82 0.76 0.65 0.60
2.97 3.09 2.96 3.01 2.79 2.67 2.86 3.00 3.00 3.59 3.46 3.31 2.83 2.54 2.49 2.42 2.24 2.27 2.34 2.42 2.18 2.05 2.24 2.70 2.88 2.79 2.62 2.34 2.09 1.89 1.75 1.66 1.48 1.18 1.02 0.97 1.07 1.15 1.10 1.02 0.88 0.74 0.60
3.06 3.19 3.25 3.19 3.00 2.85 3.01 3.04 3.25 3.49 3.26 3.12 2.83 2.63 2.53 2.47 2.27 2.27 2.50 2.72 2.44 2.26 2.23 2.43 2.76 2.95 3.02 3.00 2.72 2.32 1.96 1.67 1.49 1.26 1.08 1.00 1.04 1.12 1.09 1.09 1.00 0.82 0.64
3.13 3.32 3.17 3.05 3.15 3.16 3.30 3.50 3.56 3.56 3.45 3.31 3.08 2.72 2.53 2.56 2.10 2.05 2.17 2.34 2.51 2.28 2.42 2.65 2.86 2.91 3.17 3.37 3.25 3.09 2.67 2.07 1.73 1.47 1.26 1.12 1.14 1.15 1.09 1.07 1.05 0.87 0.69
3.01 3.26 3.20 3.24 3.27 3.32 3.37 3.10 3.56 3.55 3.59 3.42 2.83 2.63 2.35 2.33 2.20 1.94 1.98 1.95 2.10 2.14 2.19 2.34 2.59 2.67 3.13 3.55 3.71 3.73 3.56 2.99 2.34 1.94 1.76 1.55 1.42 1.29 1.15 1.11 1.07 0.97 0.78
3.13 3.35 3.30 3.36 3.38 3.47 3.48 3.45 3.69 3.62 3.44 3.35 2.64 2.46 2.24 1.91 1.92 1.90 1.75 1.76 1.85 1.77 1.91 2.18 2.48 2.19 2.57 3.04 3.29 3.64 3.94 3.78 3.21 2.70 2.49 2.32 2.05 1.70 1.39 1.29 1.25 1.18 1.02
3.28 3.60 3.45 3.70 3.61 3.39 3.33 3.41 3.64 3.50 3.23 3.26 3.23 2.70 2.11 1.76 1.79 1.65 1.73 1.91 1.81 1.82 2.04 2.36 2.49 2.35 2.12 2.20 2.29 2.70 3.45 3.99 3.90 3.45 3.09 2.79 2.62 2.36 1.85 1.66 1.58 1.52 1.41
3.21 3.24 3.52 3.42 3.41 3.49 3.38 3.38 3.59 3.40 2.97 3.09 3.33 3.25 2.53 2.28 1.81 1.37 1.64 1.80 1.87 2.09 2.17 2.17 2.50 2.68 2.45 2.57 2.04 1.99 2.73 3.59 4.07 4.08 3.67 3.25 3.00 2.80 2.45 2.28 2.04 1.76 1.62
2.81 2.93 3.03 3.11 3.43 3.35 3.38 3.43 3.37 3.27 2.97 2.89 3.00 3.26 2.82 2.41 1.95 1.44 1.39 1.67 2.02 2.19 2.16 2.26 2.34 2.56 2.66 2.92 2.78 2.36 2.27 2.55 3.34 4.11 4.13 3.77 3.30 2.92 2.83 2.88 2.68 2.22 1.89
2.72 2.74 2.79 2.85 2.94 2.86 2.99 2.74 2.87 3.10 3.20 2.92 2.96 2.88 2.77 2.62 2.46 1.99 1.65 1.66 1.92 2.07 2.23 2.20 2.28 2.41 2.70 3.12 3.20 2.69 2.25 2.03 2.34 3.29 4.01 4.12 3.74 3.32 3.27 3.39 3.51 3.16 2.54
2.81 2.77 2.76 2.75 2.65 2.51 2.61 2.62 2.81 2.82 2.83 2.81 2.87 2.92 2.94 2.85 2.63 2.51 2.25 2.14 2.05 1.82 1.87 2.00 2.17 2.29 2.51 2.91 3.11 2.77 2.65 2.36 2.24 2.44 3.01 3.61 3.77 3.66 3.50 3.59 3.94 4.02 3.59
2.64 2.59 2.54 2.56 2.48 2.45 2.50 2.57 2.67 2.60 2.62 2.76 2.79 2.80 2.90 2.87 2.87 2.90 2.48 2.30 2.13 1.71 1.67 1.66 1.84 2.02 2.36 2.67 2.54 2.58 2.51 2.34 2.18 2.16 2.27 2.70 3.03 3.22 3.31 3.56 4.02 4.47 4.55
2.16 2.23 2.17 2.28 2.27 2.28 2.30 2.42 2.50 2.46 2.57 2.73 2.67 2.69 2.71 2.65 2.73 2.83 2.74 2.40 2.18 1.86 1.92 1.85 1.84 2.03 2.14 2.47 2.47 2.36 2.15 2.07 1.91 1.86 1.81 1.91 2.16 2.37 2.60 2.94 3.45 3.97 4.37
1.84 2.00 2.13 2.16 2.13 2.10 2.14 2.39 2.27 2.28 2.45 2.49 2.43 2.81 2.69 2.46 2.57 2.67 2.86 2.96 2.63 2.25 2.26 2.15 2.04 2.06 2.17 2.32 2.24 2.11 1.91 1.86 1.66 1.56 1.48 1.48 1.51 1.63 1.82 2.07 2.42 2.72 3.06
1.82 1.90 1.95 2.05 2.07 2.16 2.29 2.40 2.26 2.38 2.60 2.50 2.60 2.85 2.72 2.57 2.58 2.59 2.87 3.16 3.17 2.83 2.53 2.34 2.17 2.06 2.04 2.01 2.07 1.92 1.85 1.83 1.61 1.49 1.39 1.30 1.25 1.25 1.34 1.49 1.68 1.86 2.01
1.81 1.73 1.71 1.79 1.82 1.90 2.09 2.24 2.17 2.32 2.58 2.54 2.55 2.69 2.67 2.59 2.77 2.77 2.87 3.10 3.27 3.21 2.70 2.51 2.40 2.08 2.11 1.78 1.90 1.78 1.73 1.70 1.49 1.40 1.34 1.31 1.28 1.27 1.27 1.30 1.39 1.51 1.65
1.72 1.65 1.66 1.69 1.68 1.65 1.74 1.90 1.92 2.15 2.21 2.21 2.15 2.25 2.26 2.48 2.68 2.65 2.77 2.88 3.07 3.26 2.94 2.78 2.83 2.55 2.49 2.22 1.99 1.78 1.56 1.53 1.42 1.41 1.30 1.22 1.20 1.19 1.21 1.19 1.17 1.24 1.35
1.57 1.64 1.72 1.64 1.52 1.55 1.69 1.71 1.79 2.02 2.11 2.09 2.10 2.18 2.07 2.22 2.33 2.38 2.58 2.71 2.93 3.28 3.14 2.95 2.91 2.79 2.66 2.42 2.22 1.98 1.56 1.35 1.38 1.50 1.33 1.19 1.13 1.11 1.13 1.12 1.07 1.04 1.06
1.44 1.51 1.57 1.52 1.51 1.62 1.81 1.92 2.04 2.09 1.97 1.96 1.94 1.87 1.82 1.98 2.03 2.19 2.36 2.38 2.53 2.90 2.95 2.71 2.64 2.85 2.71 2.46 2.45 2.13 1.87 1.80 1.39 1.39 1.32 1.15 1.09 1.03 1.03 1.08 1.08 1.02 0.99
1.44 1.51 1.57 1.69 1.76 1.77 1.74 1.78 1.90 2.02 1.97 1.81 1.65 1.53 1.55 1.71 1.75 1.89 1.96 2.12 2.28 2.39 2.59 2.57 2.49 2.62 2.66 2.56 2.71 2.47 2.26 2.10 1.76 1.45 1.46 1.24 1.13 1.07 1.04 1.03 1.04 1.06 1.08
1.39 1.55 1.73 1.83 1.85 1.78 1.63 1.69 1.78 1.69 1.69 1.59 1.44 1.30 1.23 1.26 1.31 1.45 1.46 1.72 1.98 2.11 2.19 2.31 2.35 2.45 2.67 2.78 2.64 2.62 2.44 2.26 2.09 1.93 1.89 1.51 1.22 1.06 1.05 1.05 1.07 1.11 1.13
1.40 1.56 1.61 1.66 1.64 1.47 1.56 1.47 1.41 1.43 1.44 1.44 1.45 1.41 1.25 1.13 1.11 1.17 1.21 1.29 1.48 1.61 1.79 2.05 2.15 2.26 2.48 2.75 2.79 2.80 2.70 2.48 2.27 2.10 2.24 2.20 1.82 1.54 1.33 1.10 1.09 1.10 1.17
1.54 1.52 1.46 1.48 1.51 1.62 1.50 1.27 1.20 1.20 1.31 1.36 1.40 1.38 1.16 1.03 1.09 1.06 1.14 1.14 1.19 1.23 1.33 1.59 1.73 1.77 2.02 2.34 2.68 2.74 2.83 2.68 2.45 2.40 2.50 2.54 2.58 2.34 1.77 1.42 1.34 1.17 1.19
1.64 1.56 1.40 1.40 1.42 1.41 1.36 1.20 1.18 1.10 1.16 1.25 1.31 1.35 1.34 1.28 1.19 1.21 1.23 1.16 1.07 1.07 1.09 1.06 1.14 1.35 1.53 1.78 2.16 2.36 2.68 2.88 2.73 2.63 2.66 2.74 2.75 2.96 2.46 1.91 1.74 1.48 1.41
1.59 1.62 1.51 1.44 1.41 1.40 1.35 1.19 1.16 1.10 1.19 1.25 1.35 1.37 1.34 1.27 1.26 1.22 1.21 1.21 1.10 1.01 1.00 0.99 0.97 1.08 1.28 1.43 1.72 2.07 2.37 2.60 2.71 2.78 2.82 2.88 2.81 2.95 3.23 2.76 2.07 1.72 1.48
1.77 1.80 1.70 1.61 1.63 1.66 1.69 1.48 1.36 1.22 1.26 1.32 1.44 1.42 1.30 1.19 1.24 1.17 1.07 1.13 1.11 1.11 1.14 1.09 1.08 1.12 1.18 1.33 1.58 1.86 2.14 2.42 2.47 2.56 2.41 2.39 2.42 2.57 3.02 3.21 2.82 2.20 1.73

GEFSMA_prec_meanprecacc_270.txt.gz
Total_Precipitation_Accumulation
2.74 2.80 2.81 2.94 2.73 2.78 3.12 3.23 3.01 3.19 3.20 2.96 2.72 2.47 2.38 2.18 2.08 2.10 2.20 2.14 2.09 2.21 2.54 2.76 2.64 2.51 2.27 1.99 1.81 1.73 1.66 1.54 1.45 1.24 1.07 1.07 1.20 1.19 1.03 0.91 0.84 0.71 0.67
3.07 3.20 3.08 3.14 2.95 2.79 2.95 3.08 3.09 3.68 3.55 3.38 2.88 2.58 2.53 2.47 2.27 2.30 2.38 2.46 2.21 2.08 2.26 2.74 2.94 2.86 2.69 2.42 2.19 1.99 1.84 1.72 1.52 1.22 1.08 1.05 1.19 1.27 1.20 1.10 0.96 0.80 0.66
3.15 3.28 3.37 3.31 3.12 2.94 3.07 3.10 3.31 3.56 3.33 3.18 2.89 2.68 2.58 2.52 2.32 2.30 2.56 2.78 2.48 2.30 2.27 2.47 2.82 3.02 3.10 3.10 2.81 2.39 2.02 1.74 1.54 1.29 1.13 1.06 1.13 1.20 1.16 1.17 1.08 0.88 0.71
3.20 3.39 3.26 3.14 3.23 3.22 3.36 3.55 3.62 3.63 3.53 3.39 3.15 2.77 2.58 2.61 2.16 2.09 2.23 2.41 2.57 2.33 2.46 2.68 2.90 2.97 3.24 3.44 3.33 3.17 2.73 2.13 1.78 1.51 1.29 1.16 1.20 1.21 1.15 1.14 1.13 0.94 0.75
3.04 3.31 3.27 3.31 3.35 3.38 3.42 3.15 3.62 3.62 3.67 3.50 2.88 2.67 2.38 2.36 2.24 1.96 2.00 1.98 2.15 2.20 2.24 2.37 2.62 2.70 3.18 3.60 3.76 3.79 3.64 3.06 2.40 1.99 1.81 1.60 1.50 1.35 1.20 1.17 1.16 1.05 0.86
3.15 3.39 3.35 3.43 3.43 3.51 3.53 3.50 3.76 3.67 3.49 3.41 2.68 2.50 2.27 1.94 1.94 1.93 1.79 1.81 1.91 1.82 1.97 2.24 2.53 2.22 2.61 3.08 3.33 3.69 3.99 3.84 3.29 2.78 2.57 2.40 2.14 1.78 1.46 1.36 1.34 1.27 1.10
3.29 3.62 3.48 3.76 3.66 3.45 3.38 3.45 3.71 3.56 3.28 3.32 3.30 2.77 2.16 1.79 1.82 1.69 1.77 1.96 1.86 1.87 2.09 2.41 2.54 2.40 2.16 2.24 2.33 2.73 3.48 4.04 3.97 3.56 3.26 2.95 2.75 2.46 1.92 1.74 1.68 1.60 1.48
3.22 3.26 3.55 3.45 3.46 3.55 3.43 3.42 3.66 3.47 3.04 3.15 3.41 3.35 2.62 2.35 1.87 1.42 1.68 1.83 1.90 2.14 2.22 2.23 2.57 2.74 2.50 2.62 2.08 2.01 2.76 3.63 4.15 4.21 3.82 3.39 3.13 2.91 2.53 2.36 2.12 1.82 1.68
2.83 2.95 3.05 3.14 3.47 3.39 3.44 3.50 3.43 3.35 3.06 2.96 3.08 3.36 2.93 2.53 2.04 1.51 1.43 1.71 2.07 2.25 2.21 2.31 2.40 2.62 2.71 2.99 2.84 2.38 2.30 2.58 3.40 4.21 4.24 3.85 3.37 3.00 2.91 2.96 2.77 2.30 1.97
2.73 2.75 2.81 2.87 2.98 2.90 3.05 2.80 2.94 3.18 3.29 2.99 3.05 2.96 2.85 2.74 2.59 2.08 1.71 1.71 1.98 2.12 2.29 2.24 2.34 2.49 2.76 3.20 3.28 2.75 2.29 2.07 2.40 3.36 4.08 4.19 3.80 3.37 3.33 3.46 3.59 3.25 2.66
2.81 2.78 2.77 2.78 2.69 2.55 2.67 2.68 2.89 2.89 2.90 2.87 2.93 2.99 3.04 2.96 2.74 2.62 2.34 2.20 2.10 1.85 1.91 2.04 2.23 2.37 2.61 3.02 3.21 2.85 2.72 2.41 2.29 2.49 3.06 3.66 3.81 3.70 3.54 3.64 4.00 4.10 3.71
2.66 2.61 2.58 2.61 2.53 2.49 2.55 2.63 2.74 2.66 2.68 2.82 2.85 2.86 2.98 2.95 2.97 3.01 2.57 2.37 2.19 1.76 1.72 1.71 1.89 2.09 2.43 2.75 2.60 2.66 2.57 2.38 2.21 2.18 2.29 2.73 3.07 3.25 3.36 3.60 4.07 4.54 4.64
2.20 2.27 2.22 2.34 2.34 2.35 2.37 2.49 2.56 2.51 2.64 2.78 2.71 2.74 2.78 2.71 2.80 2.92 2.83 2.47 2.24 1.91 1.97 1.91 1.89 2.07 2.17 2.51 2.50 2.42 2.21 2.12 1.95 1.89 1.84 1.94 2.18 2.39 2.63 2.98 3.49 4.04 4.45
1.88 2.05 2.18 2.23 2.20 2.17 2.20 2.45 2.30 2.32 2.50 2.54 2.47 2.87 2.75 2.52 2.63 2.73 2.93 3.04 2.70 2.31 2.32 2.21 2.10 2.09 2.20 2.36 2.28 2.17 1.98 1.91 1.70 1.59 1.52 1.51 1.53 1.65 1.84 2.12 2.48 2.80 3.14
1.90 1.97 2.00 2.09 2.12 2.21 2.32 2.44 2.29 2.41 2.65 2.54 2.64 2.91 2.78 2.63 2.65 2.65 2.93 3.22 3.24 2.89 2.59 2.40 2.23 2.12 2.09 2.05 2.13 1.96 1.91 1.89 1.66 1.52 1.41 1.32 1.27 1.26 1.35 1.51 1.72 1.93 2.10
1.91 1.78 1.75 1.81 1.84 1.92 2.10 2.26 2.19 2.36 2.62 2.58 2.59 2.75 2.73 2.64 2.84 2.83 2.93 3.16 3.34 3.28 2.77 2.58 2.46 2.13 2.15 1.82 1.95 1.84 1.78 1.75 1.53 1.42 1.35 1.31 1.29 1.28 1.28 1.31 1.40 1.54 1.71
1.79 1.70 1.69 1.70 1.69 1.66 1.75 1.92 1.94 2.18 2.24 2.24 2.18 2.28 2.30 2.54 2.74 2.69 2.82 2.93 3.13 3.33 3.00 2.82 2.86 2.59 2.53 2.27 2.03 1.81 1.58 1.55 1.44 1.42 1.31 1.23 1.21 1.20 1.22 1.20 1.19 1.26 1.38
1.60 1.67 1.74 1.65 1.52 1.56 1.70 1.73 1.81 2.05 2.14 2.12 2.12 2.20 2.10 2.27 2.39 2.44 2.62 2.75 2.98 3.33 3.19 2.98 2.94 2.83 2.71 2.47 2.25 2.00 1.57 1.36 1.39 1.50 1.34 1.20 1.14 1.12 1.14 1.13 1.08 1.05 1.08
1.46 1.52 1.59 1.54 1.52 1.63 1.83 1.94 2.06 2.12 2.01 1.99 1.97 1.91 1.85 2.02 2.08 2.23 2.39 2.41 2.57 2.94 3.00 2.75 2.67 2.88 2.74 2.48 2.47 2.14 1.88 1.81 1.39 1.39 1.33 1.16 1.10 1.04 1.04 1.09 1.09 1.03 1.00
1.46 1.53 1.59 1.71 1.78 1.78 1.76 1.80 1.93 2.06 2.02 1.86 1.70 1.59 1.60 1.75 1.79 1.92 1.99 2.15 2.31 2.43 2.63 2.61 2.53 2.66 2.69 2.58 2.73 2.48 2.27 2.11 1.77 1.47 1.48 1.25 1.14 1.08 1.05 1.04 1.04 1.06 1.09
1.41 1.58 1.79 1.88 1.88 1.80 1.65 1.72 1.82 1.72 1.74 1.64 1.48 1.34 1.27 1.29 1.34 1.47 1.47 1.74 2.02 2.16 2.24 2.36 2.39 2.49 2.70 2.80 2.67 2.64 2.47 2.27 2.11 1.94 1.91 1.52 1.23 1.07 1.05 1.06 1.07 1.11 1.14
1.43 1.60 1.66 1.70 1.65 1.49 1.59 1.49 1.44 1.45 1.47 1.47 1.48 1.45 1.27 1.15 1.13 1.17 1.21 1.31 1.51 1.65 1.85 2.11 2.19 2.29 2.51 2.77 2.81 2.82 2.72 2.49 2.28 2.12 2.26 2.21 1.84 1.56 1.35 1.11 1.10 1.12 1.19
1.56 1.54 1.48 1.49 1.52 1.63 1.51 1.28 1.22 1.21 1.33 1.38 1.42 1.41 1.18 1.06 1.11 1.08 1.15 1.16 1.22 1.27 1.37 1.64 1.78 1.82 2.07 2.37 2.70 2.75 2.84 2.69 2.46 2.41 2.51 2.55 2.60 2.35 1.77 1.43 1.35 1.18 1.20
1.67 1.58 1.42 1.41 1.43 1.42 1.38 1.21 1.19 1.11 1.17 1.26 1.33 1.38 1.37 1.31 1.21 1.24 1.27 1.20 1.10 1.11 1.13 1.09 1.18 1.39 1.58 1.81 2.18 2.37 2.69 2.89 2.74 2.64 2.67 2.75 2.76 2.97 2.47 1.92 1.74 1.49 1.41
1.63 1.67 1.56 1.47 1.43 1.42 1.37 1.21 1.17 1.12 1.21 1.28 1.38 1.41 1.39 1.31 1.30 1.26 1.26 1.26 1.14 1.06 1.04 1.02 1.00 1.11 1.32 1.46 1.74 2.08 2.38 2.61 2.72 2.79 2.83 2.90 2.81 2.96 3.24 2.77 2.07 1.72 1.48
1.86 1.90 1.79 1.69 1.71 1.73 1.74 1.52 1.38 1.24 1.28 1.34 1.47 1.46 1.35 1.24 1.30 1.23 1.12 1.18 1.16 1.16 1.18 1.12 1.10 1.14 1.20 1.36 1.60 1.87 2.15 2.43 2.48 2.57 2.42 2.40 2.43 2.58 3.02 3.22 2.83 2.20 1.73

GEFSMA_prec_meanprecacc_276.txt.gz
Total_Precipitation_Accumulation
2.85 2.90 2.91 3.05 2.83 2.90 3.28 3.39 3.13 3.26 3.26 3.00 2.76 2.51 2.43 2.24 2.14 2.16 2.24 2.19 2.12 2.25 2.58 2.79 2.67 2.55 2.32 2.04 1.86 1.79 1.72 1.60 1.50 1.29 1.11 1.12 1.25 1.22 1.07 0.95 0.89 0.76 0.72
3.15 3.25 3.16 3.26 3.05 2.89 3.08 3.21 3.17 3.74 3.60 3.43 2.93 2.62 2.58 2.53 2.35 2.34 2.41 2.50 2.26 2.12 2.31 2.79 2.99 2.91 2.74 2.47 2.23 2.04 1.90 1.77 1.56 1.25 1.11 1.08 1.23 1.30 1.24 1.14 1.01 0.84 0.70
3.20 3.33 3.44 3.42 3.24 3.04 3.17 3.18 3.38 3.62 3.37 3.23 2.92 2.72 2.63 2.57 2.37 2.35 2.60 2.83 2.54 2.36 2.32 2.52 2.87 3.08 3.16 3.16 2.87 2.44 2.06 1.78 1.59 1.35 1.18 1.10 1.18 1.26 1.20 1.22 1.13 0.94 0.75
3.22 3.42 3.31 3.24 3.34 3.30 3.42 3.61 3.68 3.68 3.56 3.41 3.17 2.80 2.62 2.65 2.21 2.14 2.29 2.50 2.62 2.38 2.52 2.75 2.95 3.01 3.28 3.49 3.40 3.23 2.77 2.17 1.83 1.56 1.34 1.22 1.26 1.27 1.22 1.22 1.20 1.01 0.82
3.06 3.33 3.31 3.37 3.41 3.43 3.46 3.18 3.66 3.65 3.70 3.52 2.90 2.70 2.42 2.40 2.29 2.02 2.05 2.02 2.19 2.26 2.30 2.41 2.65 2.72 3.21 3.65 3.81 3.83 3.67 3.10 2.43 2.03 1.85 1.66 1.56 1.41 1.28 1.24 1.23 1.12 0.92
3.17 3.40 3.37 3.45 3.45 3.54 3.57 3.53 3.79 3.70 3.53 3.44 2.72 2.54 2.33 1.98 1.99 2.01 1.87 1.88 1.98 1.88 2.04 2.29 2.55 2.25 2.66 3.13 3.37 3.72 4.03 3.87 3.31 2.81 2.60 2.44 2.19 1.84 1.52 1.42 1.39 1.32 1.15
3.29 3.63 3.49 3.78 3.68 3.47 3.42 3.49 3.74 3.62 3.33 3.37 3.35 2.83 2.21 1.84 1.87 1.76 1.88 2.02 1.90 1.91 2.14 2.47 2.58 2.43 2.20 2.27 2.35 2.76 3.52 4.08 4.01 3.61 3.31 3.01 2.82 2.55 2.00 1.80 1.73 1.64 1.52
3.23 3.27 3.56 3.46 3.47 3.57 3.45 3.46 3.70 3.52 3.09 3.21 3.47 3.43 2.70 2.41 1.92 1.47 1.74 1.90 1.98 2.20 2.27 2.28 2.61 2.77 2.52 2.63 2.09 2.04 2.80 3.70 4.23 4.27 3.89 3.48 3.23 3.03 2.63 2.44 2.18 1.87 1.73
2.84 2.96 3.06 3.14 3.48 3.40 3.45 3.52 3.46 3.39 3.11 3.03 3.16 3.43 3.01 2.59 2.08 1.54 1.47 1.76 2.14 2.32 2.27 2.37 2.47 2.68 2.76 3.03 2.87 2.42 2.33 2.62 3.46 4.29 4.33 3.95 3.45 3.07 2.97 3.03 2.82 2.36 2.02
2.74 2.76 2.81 2.88 2.99 2.91 3.07 2.82 2.96 3.23 3.35 3.06 3.12 3.02 2.90 2.78 2.65 2.12 1.75 1.75 2.03 2.19 2.36 2.33 2.43 2.57 2.84 3.27 3.34 2.82 2.36 2.14 2.47 3.47 4.23 4.32 3.90 3.45 3.40 3.54 3.68 3.34 2.72
2.82 2.79 2.78 2.79 2.71 2.57 2.68 2.70 2.93 2.94 2.95 2.92 2.99 3.04 3.09 2.99 2.78 2.66 2.37 2.24 2.14 1.90 1.97 2.12 2.34 2.49 2.73 3.14 3.33 2.96 2.83 2.56 2.43 2.64 3.23 3.78 3.91 3.79 3.62 3.72 4.08 4.21 3.81
2.67 2.62 2.59 2.62 2.54 2.50 2.56 2.66 2.79 2.71 2.72 2.85 2.88 2.89 3.01 2.99 3.01 3.05 2.60 2.40 2.21 1.79 1.76 1.75 1.95 2.17 2.52 2.87 2.75 2.81 2.72 2.53 2.36 2.34 2.43 2.85 3.18 3.36 3.44 3.68 4.15 4.63 4.74
2.21 2.29 2.23 2.36 2.36 2.38 2.40 2.53 2.61 2.57 2.68 2.81 2.73 2.76 2.80 2.74 2.84 2.95 2.87 2.51 2.26 1.94 2.00 1.95 1.94 2.12 2.23 2.58 2.58 2.51 2.32 2.23 2.05 1.99 1.96 2.09 2.33 2.52 2.73 3.05 3.56 4.10 4.52
1.89 2.07 2.20 2.25 2.23 2.22 2.26 2.51 2.34 2.35 2.52 2.55 2.48 2.88 2.77 2.55 2.67 2.77 2.96 3.08 2.73 2.34 2.36 2.25 2.14 2.13 2.25 2.43 2.35 2.25 2.05 2.00 1.77 1.65 1.59 1.59 1.61 1.71 1.91 2.18 2.55 2.85 3.19
1.93 1.99 2.02 2.11 2.16 2.25 2.37 2.48 2.32 2.43 2.66 2.56 2.65 2.92 2.81 2.66 2.70 2.70 2.96 3.26 3.28 2.92 2.63 2.43 2.25 2.15 2.13 2.10 2.19 2.01 1.95 1.93 1.71 1.55 1.45 1.36 1.31 1.29 1.37 1.52 1.74 1.97 2.14
1.96 1.84 1.79 1.84 1.87 1.95 2.13 2.29 2.21 2.37 2.63 2.59 2.61 2.77 2.74 2.67 2.88 2.87 2.97 3.20 3.39 3.32 2.80 2.61 2.50 2.17 2.21 1.86 2.00 1.88 1.82 1.79 1.56 1.45 1.38 1.34 1.32 1.30 1.30 1.33 1.41 1.55 1.73
1.86 1.78 1.73 1.73 1.71 1.68 1.78 1.95 1.96 2.20 2.26 2.26 2.21 2.31 2.34 2.58 2.77 2.73 2.87 3.00 3.20 3.40 3.04 2.86 2.89 2.61 2.56 2.29 2.06 1.84 1.60 1.56 1.45 1.44 1.32 1.25 1.22 1.21 1.23 1.22 1.20 1.27 1.40
1.64 1.72 1.77 1.67 1.54 1.58 1.73 1.76 1.84 2.08 2.18 2.16 2.16 2.24 2.13 2.30 2.43 2.48 2.67 2.80 3.04 3.38 3.23 3.02 2.97 2.84 2.72 2.48 2.26 2.01 1.58 1.36 1.39 1.51 1.34 1.20 1.15 1.13 1.15 1.14 1.08 1.06 1.09
1.49 1.55 1.62 1.57 1.54 1.65 1.85 1.97 2.09 2.15 2.05 2.03 2.01 1.93 1.88 2.05 2.10 2.25 2.41 2.43 2.59 2.97 3.04 2.78 2.70 2.91 2.76 2.49 2.48 2.15 1.88 1.82 1.39 1.40 1.33 1.16 1.10 1.05 1.04 1.09 1.09 1.04 1.00
1.48 1.55 1.62 1.74 1.80 1.81 1.79 1.83 1.97 2.09 2.05 1.89 1.73 1.61 1.62 1.78 1.80 1.93 2.00 2.17 2.33 2.45 2.66 2.64 2.56 2.68 2.70 2.60 2.74 2.50 2.28 2.12 1.78 1.47 1.48 1.25 1.14 1.09 1.05 1.04 1.05 1.07 1.09
1.43 1.60 1.81 1.91 1.92 1.84 1.70 1.78 1.85 1.74 1.75 1.65 1.50 1.36 1.29 1.30 1.36 1.49 1.49 1.76 2.04 2.17 2.26 2.38 2.41 2.51 2.71 2.81 2.67 2.65 2.48 2.28 2.12 1.95 1.91 1.52 1.23 1.07 1.06 1.06 1.08 1.12 1.15
1.46 1.62 1.67 1.71 1.67 1.50 1.61 1.51 1.45 1.46 1.48 1.49 1.49 1.47 1.29 1.18 1.16 1.20 1.24 1.33 1.53 1.66 1.86 2.12 2.20 2.30 2.52 2.78 2.82 2.84 2.73 2.51 2.29 2.12 2.26 2.21 1.84 1.56 1.35 1.12 1.12 1.14 1.21
1.58 1.56 1.49 1.50 1.52 1.65 1.53 1.30 1.24 1.23 1.34 1.41 1.46 1.45 1.21 1.09 1.14 1.11 1.17 1.17 1.24 1.28 1.39 1.65 1.79 1.83 2.09 2.39 2.72 2.78 2.86 2.70 2.47 2.41 2.51 2.55 2.60 2.36 1.78 1.43 1.36 1.19 1.21
1.69 1.61 1.44 1.43 1.45 1.44 1.41 1.24 1.22 1.14 1.21 1.30 1.38 1.42 1.40 1.34 1.25 1.27 1.29 1.22 1.12 1.13 1.15 1.11 1.19 1.41 1.61 1.85 2.22 2.41 2.72 2.91 2.76 2.65 2.67 2.75 2.76 2.97 2.47 1.92 1.75 1.49 1.42
1.66 1.70 1.59 1.50 1.47 1.46 1.42 1.25 1.22 1.16 1.25 1.32 1.43 1.45 1.43 1.35 1.35 1.32 1.30 1.29 1.17 1.08 1.06 1.05 1.02 1.14 1.35 1.51 1.80 2.14 2.44 2.65 2.74 2.80 2.84 2.90 2.82 2.96 3.24 2.77 2.08 1.73 1.49
1.89 1.94 1.81 1.71 1.74 1.76 1.78 1.56 1.45 1.30 1.34 1.40 1.53 1.52 1.42 1.32 1.39 1.29 1.17 1.21 1.20 1.19 1.22 1.16 1.13 1.17 1.23 1.40 1.67 1.93 2.20 2.47 2.51 2.59 2.43 2.40 2.43 2.58 3.03 3.22 2.83 2.20 1.73

GEFSMA_prec_meanprecacc_282.txt.gz
Total_Precipitation_Accumulation
2.96 3.02 3.03 3.16 2.93 3.00 3.39 3.48 3.19 3.31 3.31 3.04 2.79 2.54 2.46 2.28 2.21 2.22 2.30 2.26 2.20 2.34 2.69 2.91 2.79 2.64 2.39 2.10 1.92 1.84 1.78 1.66 1.57 1.36 1.20 1.21 1.32 1.29 1.13 1.01 0.95 0.84 0.79
3.29 3.41 3.33 3.42 3.19 2.99 3.18 3.29 3.23 3.80 3.65 3.46 2.96 2.65 2.61 2.57 2.39 2.37 2.44 2.55 2.32 2.18 2.39 2.86 3.06 2.97 2.80 2.51 2.27 2.09 1.95 1.84 1.62 1.29 1.14 1.13 1.28 1.35 1.29 1.21 1.06 0.90 0.76
3.29 3.46 3.63 3.60 3.39 3.15 3.26 3.29 3.46 3.68 3.41 3.27 2.96 2.74 2.65 2.61 2.41 2.37 2.63 2.86 2.58 2.43 2.40 2.60 2.94 3.15 3.23 3.23 2.93 2.49 2.11 1.83 1.65 1.40 1.23 1.15 1.23 1.30 1.25 1.28 1.21 1.00 0.80
3.25 3.46 3.40 3.36 3.49 3.43 3.54 3.72 3.76 3.74 3.60 3.44 3.19 2.81 2.63 2.68 2.24 2.17 2.32 2.51 2.65 2.42 2.58 2.83 3.03 3.09 3.35 3.55 3.46 3.29 2.82 2.21 1.87 1.60 1.38 1.26 1.30 1.31 1.26 1.28 1.26 1.07 0.88
3.07 3.35 3.34 3.45 3.56 3.57 3.58 3.26 3.71 3.68 3.72 3.53 2.91 2.71 2.43 2.43 2.33 2.06 2.08 2.04 2.22 2.29 2.34 2.47 2.71 2.78 3.27 3.70 3.88 3.90 3.73 3.15 2.48 2.07 1.90 1.72 1.62 1.46 1.33 1.29 1.29 1.19 0.99
3.18 3.42 3.40 3.51 3.55 3.65 3.65 3.57 3.82 3.73 3.55 3.47 2.74 2.57 2.36 2.02 2.03 2.06 1.92 1.91 2.02 1.93 2.08 2.33 2.59 2.29 2.72 3.22 3.46 3.81 4.10 3.93 3.38 2.87 2.66 2.50 2.27 1.91 1.58 1.47 1.45 1.40 1.23
3.30 3.64 3.51 3.81 3.71 3.51 3.47 3.53 3.78 3.65 3.37 3.40 3.38 2.87 2.24 1.88 1.90 1.80 1.93 2.07 1.93 1.94 2.16 2.50 2.63 2.49 2.24 2.33 2.42 2.83 3.59 4.16 4.09 3.68 3.39 3.09 2.91 2.63 2.08 1.87 1.79 1.70 1.58
3.23 3.27 3.56 3.47 3.49 3.59 3.49 3.49 3.73 3.55 3.11 3.23 3.50 3.47 2.74 2.45 1.95 1.51 1.78 1.93 2.01 2.23 2.30 2.32 2.66 2.83 2.57 2.68 2.13 2.07 2.85 3.77 4.31 4.36 3.98 3.57 3.32 3.11 2.72 2.54 2.26 1.94 1.79
2.85 2.98 3.07 3.16 3.49 3.42 3.46 3.53 3.48 3.42 3.13 3.05 3.20 3.48 3.05 2.63 2.12 1.57 1.50 1.79 2.17 2.35 2.32 2.42 2.52 2.74 2.82 3.08 2.92 2.46 2.38 2.68 3.53 4.37 4.42 4.05 3.55 3.17 3.07 3.12 2.92 2.46 2.12
2.75 2.78 2.84 2.90 3.01 2.93 3.08 2.82 2.97 3.24 3.37 3.08 3.16 3.06 2.94 2.82 2.68 2.15 1.78 1.78 2.05 2.22 2.39 2.36 2.47 2.62 2.89 3.33 3.42 2.92 2.48 2.24 2.57 3.56 4.34 4.47 4.07 3.61 3.52 3.66 3.80 3.45 2.82
2.83 2.80 2.79 2.80 2.73 2.59 2.71 2.72 2.94 2.97 2.98 2.96 3.03 3.09 3.13 3.03 2.81 2.68 2.39 2.27 2.17 1.94 2.01 2.16 2.37 2.51 2.76 3.20 3.39 3.04 2.94 2.67 2.52 2.73 3.36 3.94 4.08 3.95 3.77 3.86 4.20 4.32 3.91
2.69 2.63 2.60 2.63 2.56 2.52 2.59 2.68 2.81 2.73 2.76 2.91 2.94 2.94 3.06 3.03 3.05 3.07 2.61 2.42 2.24 1.83 1.79 1.78 1.98 2.19 2.55 2.90 2.81 2.87 2.79 2.60 2.44 2.43 2.53 2.96 3.30 3.49 3.57 3.81 4.28 4.75 4.85
2.22 2.29 2.24 2.37 2.37 2.39 2.43 2.56 2.65 2.61 2.74 2.88 2.79 2.81 2.84 2.78 2.89 2.98 2.89 2.53 2.30 1.98 2.03 1.97 1.96 2.15 2.25 2.60 2.63 2.57 2.36 2.28 2.10 2.05 2.04 2.20 2.46 2.66 2.86 3.17 3.66 4.21 4.64
1.90 2.08 2.21 2.26 2.25 2.24 2.30 2.56 2.39 2.41 2.59 2.62 2.54 2.93 2.82 2.58 2.70 2.81 2.99 3.12 2.77 2.38 2.39 2.27 2.15 2.15 2.27 2.44 2.38 2.30 2.10 2.05 1.83 1.71 1.65 1.66 1.69 1.81 2.02 2.29 2.65 2.94 3.26
1.95 2.00 2.04 2.14 2.20 2.31 2.43 2.55 2.37 2.47 2.70 2.59 2.69 2.96 2.84 2.69 2.71 2.72 2.99 3.30 3.32 2.96 2.65 2.45 2.27 2.17 2.15 2.11 2.21 2.04 1.98 1.98 1.76 1.61 1.50 1.42 1.37 1.35 1.44 1.58 1.79 2.02 2.19
1.99 1.87 1.82 1.87 1.92 2.02 2.19 2.34 2.26 2.41 2.66 2.61 2.63 2.78 2.75 2.68 2.90 2.90 3.00 3.23 3.42 3.36 2.83 2.62 2.51 2.19 2.22 1.87 2.02 1.90 1.85 1.83 1.61 1.49 1.42 1.38 1.36 1.34 1.34 1.36 1.44 1.58 1.76
1.92 1.85 1.81 1.80 1.77 1.72 1.83 2.00 2.00 2.22 2.27 2.27 2.22 2.33 2.35 2.59 2.79 2.76 2.90 3.03 3.24 3.44 3.07 2.88 2.91 2.63 2.58 2.31 2.07 1.85 1.62 1.58 1.47 1.46 1.34 1.26 1.24 1.24 1.26 1.24 1.22 1.29 1.41
1.72 1.80 1.84 1.75 1.59 1.62 1.79 1.81 1.87 2.10 2.20 2.17 2.17 2.26 2.15 2.32 2.44 2.50 2.69 2.83 3.08 3.43 3.26 3.05 2.99 2.87 2.75 2.50 2.28 2.03 1.59 1.37 1.40 1.52 1.35 1.21 1.15 1.13 1.16 1.15 1.09 1.07 1.09
1.56 1.62 1.66 1.61 1.57 1.69 1.89 1.99 2.11 2.17 2.07 2.04 2.02 1.95 1.89 2.06 2.11 2.27 2.43 2.45 2.63 3.01 3.07 2.81 2.72 2.93 2.78 2.52 2.49 2.16 1.89 1.83 1.40 1.40 1.33 1.17 1.10 1.05 1.04 1.09 1.09 1.04 1.01
1.54 1.60 1.65 1.77 1.83 1.83 1.80 1.84 1.98 2.11 2.07 1.91 1.74 1.62 1.64 1.80 1.82 1.95 2.01 2.19 2.36 2.49 2.69 2.66 2.58 2.70 2.73 2.62 2.76 2.51 2.29 2.13 1.79 1.47 1.49 1.25 1.15 1.09 1.06 1.04 1.05 1.07 1.09
1.48 1.65 1.86 1.95 1.94 1.86 1.71 1.79 1.88 1.78 1.79 1.68 1.52 1.39 1.32 1.34 1.39 1.52 1.51 1.78 2.07 2.20 2.28 2.40 2.43 2.52 2.73 2.83 2.69 2.66 2.49 2.30 2.13 1.96 1.92 1.53 1.23 1.08 1.06 1.07 1.08 1.12 1.15
1.52 1.67 1.71 1.74 1.70 1.53 1.64 1.54 1.48 1.49 1.50 1.50 1.50 1.48 1.31 1.21 1.18 1.23 1.27 1.35 1.55 1.69 1.89 2.14 2.23 2.32 2.54 2.80 2.84 2.85 2.75 2.52 2.30 2.13 2.27 2.22 1.85 1.56 1.35 1.12 1.12 1.14 1.21
1.62 1.59 1.52 1.53 1.55 1.68 1.56 1.33 1.26 1.25 1.36 1.42 1.47 1.46 1.22 1.11 1.17 1.13 1.20 1.20 1.26 1.31 1.41 1.68 1.81 1.86 2.12 2.42 2.75 2.81 2.88 2.72 2.49 2.43 2.53 2.56 2.61 2.36 1.78 1.43 1.36 1.19 1.22
1.71 1.62 1.45 1.45 1.47 1.47 1.43 1.26 1.24 1.15 1.21 1.31 1.39 1.43 1.42 1.36 1.27 1.30 1.33 1.26 1.14 1.15 1.18 1.13 1.22 1.45 1.64 1.89 2.27 2.45 2.76 2.95 2.79 2.68 2.70 2.77 2.77 2.98 2.48 1.93 1.75 1.49 1.42
1.67 1.71 1.60 1.51 1.48 1.48 1.44 1.27 1.24 1.17 1.26 1.33 1.44 1.47 1.45 1.38 1.38 1.36 1.34 1.32 1.19 1.11 1.09 1.09 1.07 1.19 1.41 1.56 1.85 2.18 2.47 2.69 2.79 2.84 2.89 2.95 2.85 2.99 3.26 2.78 2.08 1.73 1.49
1.90 1.95 1.83 1.74 1.76 1.78 1.81 1.60 1.48 1.32 1.36 1.41 1.54 1.53 1.44 1.35 1.43 1.33 1.20 1.24 1.23 1.24 1.28 1.23 1.20 1.23 1.29 1.45 1.72 1.97 2.23 2.51 2.56 2.64 2.50 2.48 2.50 2.63 3.06 3.23 2.83 2.20 1.73

GEFSMA_prec_meanprecacc_288.txt.gz
Total_Precipitation_Accumulation
3.07 3.15 3.17 3.31 3.07 3.11 3.52 3.64 3.36 3.45 3.40 3.12 2.86 2.61 2.53 2.34 2.28 2.31 2.40 2.35 2.26 2.41 2.80 3.02 2.89 2.77 2.52 2.21 2.02 1.94 1.88 1.75 1.65 1.47 1.31 1.36 1.50 1.45 1.25 1.11 1.08 0.93 0.87
3.40 3.57 3.46 3.54 3.30 3.09 3.29 3.48 3.39 3.96 3.75 3.54 3.04 2.72 2.68 2.65 2.47 2.45 2.52 2.61 2.38 2.25 2.47 2.95 3.14 3.05 2.88 2.59 2.34 2.15 2.02 1.91 1.67 1.34 1.20 1.22 1.39 1.46 1.38 1.26 1.12 0.95 0.82
3.39 3.62 3.81 3.74 3.49 3.24 3.39 3.44 3.62 3.86 3.57 3.37 3.05 2.82 2.73 2.67 2.46 2.42 2.68 2.91 2.62 2.48 2.46 2.67 3.03 3.23 3.33 3.32 3.00 2.55 2.17 1.89 1.70 1.44 1.26 1.19 1.28 1.36 1.31 1.34 1.27 1.07 0.87
3.37 3.59 3.56 3.48 3.59 3.51 3.66 3.87 3.93 3.92 3.76 3.58 3.28 2.89 2.70 2.73 2.27 2.19 2.34 2.53 2.67 2.46 2.63 2.89 3.10 3.17 3.44 3.64 3.56 3.39 2.90 2.29 1.93 1.64 1.42 1.30 1.33 1.34 1.30 1.32 1.32 1.14 0.93
3.14 3.42 3.44 3.56 3.66 3.67 3.70 3.40 3.89 3.84 3.86 3.66 3.01 2.78 2.49 2.47 2.35 2.07 2.09 2.05 2.24 2.32 2.37 2.50 2.77 2.85 3.34 3.77 3.95 3.98 3.82 3.23 2.55 2.14 1.96 1.78 1.67 1.51 1.37 1.34 1.35 1.26 1.06
3.22 3.46 3.46 3.57 3.61 3.72 3.77 3.71 3.95 3.86 3.67 3.59 2.82 2.63 2.41 2.06 2.06 2.09 1.94 1.93 2.04 1.95 2.10 2.35 2.64 2.34 2.77 3.28 3.52 3.86 4.18 4.03 3.46 2.94 2.72 2.55 2.33 1.96 1.63 1.51 1.51 1.47 1.30
3.34 3.69 3.56 3.87 3.78 3.57 3.55 3.62 3.85 3.73 3.45 3.47 3.45 2.93 2.31 1.93 1.96 1.86 1.97 2.09 1.95 1.96 2.19 2.55 2.68 2.54 2.28 2.37 2.46 2.86 3.64 4.24 4.17 3.75 3.44 3.13 2.95 2.67 2.13 1.92 1.84 1.74 1.63
3.26 3.29 3.60 3.51 3.54 3.65 3.53 3.53 3.77 3.60 3.16 3.28 3.56 3.55 2.82 2.52 2.02 1.56 1.82 1.97 2.05 2.27 2.34 2.35 2.70 2.87 2.59 2.70 2.15 2.09 2.88 3.80 4.36 4.41 4.04 3.62 3.36 3.16 2.79 2.60 2.32 1.99 1.84
2.86 2.99 3.09 3.19 3.53 3.45 3.49 3.56 3.52 3.45 3.17 3.10 3.26 3.56 3.14 2.71 2.19 1.63 1.55 1.84 2.22 2.41 2.36 2.44 2.55 2.77 2.85 3.10 2.95 2.49 2.40 2.71 3.57 4.41 4.48 4.10 3.61 3.23 3.13 3.17 2.96 2.51 2.18
2.76 2.79 2.86 2.92 3.03 2.94 3.10 2.84 2.99 3.27 3.40 3.11 3.21 3.12 3.02 2.89 2.77 2.21 1.82 1.82 2.09 2.25 2.43 2.39 2.50 2.65 2.92 3.36 3.44 2.95 2.50 2.27 2.62 3.61 4.39 4.52 4.13 3.68 3.60 3.72 3.85 3.49 2.87
2.85 2.81 2.80 2.82 2.74 2.61 2.73 2.75 2.97 3.00 3.01 2.99 3.07 3.14 3.20 3.11 2.89 2.74 2.43 2.30 2.19 1.95 2.03 2.20 2.40 2.55 2.79 3.22 3.42 3.08 2.96 2.70 2.56 2.77 3.39 3.99 4.14 4.02 3.84 3.92 4.27 4.39 3.97
2.72 2.64 2.61 2.66 2.59 2.55 2.62 2.71 2.84 2.77 2.81 2.96 2.99 3.00 3.13 3.12 3.13 3.13 2.65 2.45 2.28 1.85 1.81 1.81 2.00 2.22 2.58 2.94 2.84 2.90 2.81 2.62 2.46 2.46 2.56 2.99 3.34 3.53 3.62 3.87 4.35 4.82 4.92
2.27 2.33 2.27 2.41 2.41 2.43 2.47 2.60 2.68 2.65 2.79 2.94 2.85 2.88 2.93 2.87 2.97 3.05 2.95 2.57 2.33 1.99 2.05 1.99 1.97 2.16 2.27 2.62 2.65 2.58 2.38 2.29 2.12 2.06 2.05 2.22 2.49 2.70 2.91 3.22 3.72 4.27 4.70
1.96 2.14 2.27 2.31 2.29 2.29 2.35 2.61 2.45 2.47 2.66 2.69 2.60 2.99 2.87 2.64 2.78 2.87 3.04 3.17 2.81 2.41 2.42 2.29 2.17 2.16 2.28 2.46 2.40 2.31 2.11 2.06 1.84 1.72 1.66 1.67 1.70 1.83 2.04 2.32 2.69 2.99 3.32
2.00 2.06 2.11 2.21 2.29 2.41 2.54 2.66 2.47 2.56 2.78 2.66 2.74 3.00 2.87 2.73 2.76 2.76 3.04 3.36 3.39 3.00 2.68 2.47 2.29 2.20 2.17 2.13 2.23 2.05 2.00 1.99 1.77 1.61 1.51 1.42 1.38 1.37 1.47 1.61 1.83 2.07 2.26
2.06 1.94 1.90 1.95 2.01 2.10 2.26 2.41 2.31 2.46 2.70 2.65 2.67 2.82 2.79 2.72 2.94 2.94 3.04 3.28 3.48 3.42 2.87 2.65 2.54 2.22 2.25 1.88 2.03 1.91 1.87 1.84 1.61 1.49 1.42 1.39 1.37 1.36 1.36 1.39 1.48 1.62 1.80
2.00 1.93 1.89 1.87 1.84 1.81 1.90 2.05 2.05 2.27 2.31 2.30 2.26 2.37 2.39 2.64 2.85 2.81 2.96 3.09 3.30 3.51 3.13 2.93 2.95 2.66 2.60 2.32 2.09 1.88 1.64 1.60 1.48 1.47 1.34 1.27 1.25 1.25 1.28 1.26 1.24 1.31 1.44
1.78 1.87 1.90 1.81 1.68 1.71 1.85 1.86 1.91 2.14 2.23 2.19 2.20 2.29 2.19 2.38 2.50 2.56 2.75 2.89 3.14 3.50 3.33 3.10 3.03 2.90 2.78 2.53 2.30 2.05 1.61 1.39 1.42 1.53 1.36 1.21 1.16 1.14 1.16 1.16 1.10 1.08 1.11
1.60 1.67 1.71 1.65 1.62 1.73 1.93 2.02 2.14 2.20 2.09 2.07 2.04 1.96 1.90 2.09 2.14 2.31 2.46 2.49 2.67 3.07 3.12 2.85 2.76 2.97 2.82 2.54 2.53 2.19 1.92 1.84 1.41 1.41 1.34 1.17 1.11 1.05 1.05 1.10 1.10 1.04 1.01
1.57 1.64 1.70 1.82 1.87 1.86 1.82 1.86 2.00 2.13 2.10 1.93 1.76 1.64 1.66 1.82 1.84 1.99 2.06 2.24 2.43 2.56 2.76 2.73 2.64 2.75 2.76 2.66 2.80 2.56 2.34 2.17 1.81 1.49 1.50 1.26 1.15 1.09 1.06 1.04 1.05 1.07 1.09
1.52 1.69 1.91 2.00 1.98 1.88 1.72 1.81 1.90 1.80 1.81 1.70 1.54 1.40 1.34 1.36 1.43 1.57 1.55 1.83 2.12 2.25 2.33 2.45 2.47 2.57 2.77 2.90 2.75 2.72 2.54 2.35 2.17 1.98 1.94 1.55 1.24 1.09 1.07 1.07 1.09 1.12 1.15
1.55 1.72 1.76 1.78 1.73 1.55 1.65 1.55 1.49 1.50 1.52 1.52 1.52 1.50 1.33 1.22 1.20 1.25 1.28 1.37 1.58 1.72 1.93 2.19 2.28 2.37 2.60 2.87 2.92 2.92 2.81 2.59 2.36 2.17 2.30 2.24 1.86 1.58 1.37 1.14 1.13 1.15 1.22
1.65 1.63 1.57 1.58 1.59 1.70 1.57 1.34 1.29 1.28 1.38 1.43 1.48 1.47 1.23 1.12 1.18 1.15 1.21 1.21 1.28 1.34 1.45 1.72 1.86 1.92 2.18 2.48 2.82 2.86 2.94 2.77 2.52 2.46 2.56 2.59 2.64 2.39 1.80 1.45 1.37 1.20 1.22
1.74 1.66 1.49 1.49 1.50 1.48 1.44 1.27 1.26 1.18 1.23 1.33 1.41 1.45 1.44 1.38 1.28 1.32 1.34 1.27 1.16 1.17 1.20 1.16 1.26 1.50 1.69 1.94 2.32 2.49 2.81 3.00 2.84 2.72 2.73 2.80 2.80 3.01 2.51 1.96 1.78 1.51 1.43
1.68 1.73 1.62 1.54 1.50 1.49 1.45 1.28 1.26 1.19 1.28 1.34 1.45 1.48 1.47 1.40 1.40 1.37 1.35 1.34 1.22 1.14 1.13 1.12 1.11 1.25 1.47 1.62 1.91 2.23 2.52 2.74 2.84 2.89 2.92 2.99 2.89 3.03 3.30 2.82 2.12 1.76 1.51
1.92 1.96 1.84 1.75 1.77 1.80 1.83 1.62 1.49 1.34 1.37 1.42 1.55 1.55 1.46 1.38 1.47 1.36 1.22 1.27 1.26 1.27 1.32 1.28 1.26 1.28 1.33 1.50 1.78 2.01 2.28 2.56 2.60 2.69 2.53 2.51 2.54 2.68 3.11 3.28 2.87 2.24 1.76

GEFSMA_prec_meanprecacc_294.txt.gz
Total_Precipitation_Accumulation
3.17 3.25 3.31 3.47 3.22 3.27 3.69 3.83 3.56 3.66 3.60 3.25 2.97 2.74 2.65 2.48 2.43 2.45 2.53 2.46 2.34 2.48 2.87 3.07 2.93 2.81 2.57 2.26 2.09 2.03 1.98 1.85 1.73 1.54 1.38 1.42 1.56 1.53 1.31 1.17 1.17 1.05 0.98
3.47 3.65 3.55 3.67 3.45 3.23 3.44 3.63 3.57 4.15 3.97 3.73 3.17 2.86 2.81 2.76 2.58 2.54 2.60 2.69 2.44 2.31 2.54 3.01 3.20 3.11 2.95 2.67 2.42 2.21 2.09 1.98 1.73 1.39 1.25 1.26 1.45 1.52 1.44 1.32 1.21 1.09 0.95
3.47 3.69 3.88 3.83 3.60 3.37 3.54 3.61 3.79 4.03 3.76 3.55 3.20 2.97 2.85 2.79 2.56 2.50 2.75 2.98 2.68 2.54 2.52 2.74 3.09 3.31 3.41 3.40 3.08 2.61 2.24 1.96 1.76 1.48 1.30 1.22 1.34 1.43 1.38 1.40 1.31 1.13 0.95
3.47 3.69 3.65 3.56 3.66 3.59 3.78 4.02 4.10 4.07 3.93 3.74 3.44 3.04 2.81 2.84 2.36 2.27 2.41 2.59 2.72 2.49 2.67 2.94 3.16 3.25 3.52 3.71 3.63 3.47 2.97 2.35 1.98 1.68 1.45 1.32 1.35 1.37 1.33 1.36 1.35 1.18 0.97
3.25 3.51 3.53 3.64 3.73 3.75 3.78 3.47 4.01 4.00 4.03 3.84 3.17 2.92 2.60 2.58 2.45 2.15 2.16 2.10 2.29 2.36 2.41 2.55 2.82 2.91 3.41 3.83 4.02 4.05 3.89 3.28 2.60 2.17 1.99 1.80 1.70 1.53 1.40 1.37 1.37 1.29 1.11
3.29 3.53 3.52 3.64 3.67 3.79 3.83 3.76 4.02 3.97 3.79 3.73 2.99 2.81 2.56 2.19 2.17 2.18 2.01 1.98 2.10 2.00 2.14 2.40 2.71 2.41 2.82 3.33 3.57 3.91 4.22 4.05 3.48 2.97 2.75 2.58 2.36 2.01 1.67 1.55 1.54 1.50 1.34
3.40 3.75 3.62 3.94 3.84 3.64 3.61 3.68 3.94 3.83 3.55 3.58 3.59 3.10 2.48 2.09 2.09 1.97 2.05 2.16 2.00 2.00 2.24 2.61 2.74 2.58 2.30 2.40 2.50 2.89 3.66 4.26 4.18 3.76 3.46 3.15 2.97 2.71 2.16 1.95 1.87 1.77 1.65
3.32 3.35 3.66 3.57 3.60 3.72 3.60 3.60 3.86 3.68 3.25 3.39 3.68 3.67 2.97 2.68 2.17 1.68 1.92 2.03 2.10 2.32 2.39 2.41 2.75 2.90 2.62 2.74 2.18 2.11 2.89 3.82 4.37 4.42 4.06 3.64 3.38 3.19 2.81 2.63 2.35 2.02 1.87
2.92 3.06 3.15 3.25 3.58 3.49 3.55 3.63 3.58 3.51 3.25 3.19 3.35 3.67 3.27 2.83 2.30 1.72 1.63 1.90 2.28 2.47 2.42 2.50 2.61 2.81 2.89 3.15 3.00 2.52 2.42 2.73 3.60 4.45 4.52 4.13 3.62 3.25 3.16 3.20 2.99 2.54 2.21
2.81 2.85 2.90 2.97 3.08 2.98 3.15 2.89 3.04 3.34 3.47 3.17 3.27 3.19 3.10 2.99 2.86 2.30 1.89 1.86 2.13 2.30 2.47 2.44 2.56 2.72 2.99 3.43 3.50 2.99 2.53 2.30 2.66 3.66 4.43 4.56 4.16 3.71 3.62 3.76 3.88 3.52 2.90
2.89 2.85 2.84 2.86 2.79 2.65 2.77 2.80 3.04 3.06 3.07 3.06 3.14 3.21 3.28 3.21 2.99 2.83 2.49 2.35 2.23 1.98 2.07 2.25 2.46 2.61 2.86 3.29 3.48 3.12 3.01 2.73 2.59 2.80 3.42 4.02 4.18 4.06 3.87 3.95 4.31 4.43 4.02
2.76 2.69 2.65 2.70 2.64 2.60 2.68 2.77 2.90 2.82 2.87 3.02 3.07 3.07 3.20 3.19 3.21 3.21 2.71 2.50 2.32 1.88 1.85 1.85 2.05 2.27 2.62 2.98 2.88 2.95 2.86 2.65 2.48 2.47 2.58 3.01 3.37 3.57 3.66 3.90 4.38 4.85 4.97
2.30 2.38 2.32 2.46 2.46 2.48 2.52 2.67 2.74 2.72 2.86 3.01 2.92 2.95 3.00 2.94 3.04 3.13 3.02 2.62 2.38 2.03 2.09 2.03 2.01 2.22 2.32 2.68 2.70 2.61 2.41 2.32 2.13 2.08 2.07 2.23 2.50 2.73 2.94 3.25 3.74 4.30 4.74
1.99 2.17 2.30 2.34 2.33 2.33 2.40 2.67 2.51 2.54 2.73 2.77 2.68 3.08 2.94 2.70 2.83 2.93 3.10 3.22 2.86 2.45 2.45 2.32 2.20 2.21 2.34 2.53 2.46 2.35 2.15 2.09 1.86 1.73 1.67 1.68 1.71 1.84 2.06 2.34 2.70 3.00 3.34
2.03 2.10 2.14 2.24 2.33 2.46 2.60 2.74 2.55 2.66 2.88 2.75 2.83 3.09 2.95 2.79 2.82 2.81 3.10 3.43 3.45 3.06 2.73 2.51 2.33 2.24 2.21 2.18 2.27 2.09 2.04 2.02 1.79 1.63 1.52 1.43 1.39 1.38 1.47 1.62 1.84 2.08 2.27
2.09 1.98 1.93 2.00 2.05 2.16 2.32 2.47 2.38 2.52 2.76 2.71 2.73 2.88 2.85 2.77 3.00 2.99 3.10 3.37 3.58 3.52 2.94 2.69 2.58 2.26 2.30 1.93 2.08 1.95 1.91 1.87 1.64 1.51 1.43 1.40 1.38 1.36 1.37 1.40 1.49 1.63 1.81
2.03 1.96 1.94 1.93 1.90 1.86 1.94 2.10 2.10 2.32 2.36 2.36 2.31 2.42 2.43 2.69 2.90 2.86 3.01 3.17 3.39 3.62 3.22 2.97 3.02 2.73 2.67 2.39 2.15 1.93 1.69 1.63 1.51 1.48 1.36 1.28 1.26 1.25 1.28 1.27 1.25 1.32 1.45
1.80 1.90 1.95 1.87 1.73 1.77 1.91 1.92 1.97 2.19 2.28 2.25 2.24 2.34 2.24 2.44 2.57 2.62 2.82 2.97 3.23 3.61 3.43 3.16 3.09 2.97 2.84 2.59 2.36 2.11 1.66 1.43 1.46 1.57 1.39 1.24 1.18 1.16 1.18 1.17 1.11 1.08 1.11
1.64 1.71 1.75 1.70 1.67 1.79 1.99 2.08 2.19 2.25 2.14 2.11 2.08 2.00 1.95 2.14 2.20 2.36 2.53 2.55 2.75 3.15 3.22 2.93 2.82 3.04 2.87 2.62 2.61 2.27 2.00 1.92 1.48 1.49 1.39 1.20 1.13 1.07 1.07 1.11 1.11 1.05 1.02
1.59 1.66 1.72 1.85 1.90 1.90 1.87 1.91 2.05 2.18 2.14 1.97 1.81 1.69 1.71 1.88 1.91 2.05 2.11 2.31 2.50 2.64 2.84 2.80 2.71 2.83 2.84 2.75 2.89 2.65 2.44 2.28 1.93 1.59 1.57 1.31 1.18 1.12 1.08 1.06 1.07 1.09 1.10
1.53 1.71 1.93 2.02 2.01 1.91 1.76 1.85 1.95 1.85 1.85 1.74 1.58 1.44 1.38 1.40 1.47 1.61 1.59 1.87 2.17 2.30 2.38 2.51 2.52 2.62 2.84 2.97 2.84 2.83 2.67 2.50 2.29 2.08 2.03 1.62 1.31 1.13 1.10 1.09 1.10 1.14 1.18
1.56 1.74 1.78 1.81 1.76 1.57 1.69 1.59 1.53 1.53 1.55 1.55 1.56 1.53 1.36 1.25 1.23 1.28 1.31 1.39 1.60 1.76 1.97 2.23 2.31 2.41 2.66 2.95 3.01 3.01 2.91 2.69 2.47 2.27 2.38 2.32 1.93 1.64 1.41 1.17 1.15 1.17 1.24
1.67 1.66 1.60 1.60 1.63 1.74 1.61 1.38 1.32 1.30 1.40 1.46 1.51 1.50 1.25 1.13 1.20 1.16 1.23 1.22 1.29 1.37 1.49 1.77 1.91 1.98 2.26 2.58 2.91 2.96 3.03 2.85 2.59 2.52 2.61 2.64 2.68 2.42 1.82 1.46 1.39 1.22 1.25
1.77 1.69 1.52 1.51 1.54 1.52 1.48 1.30 1.29 1.20 1.26 1.35 1.43 1.47 1.46 1.39 1.30 1.33 1.35 1.28 1.18 1.20 1.23 1.19 1.31 1.56 1.78 2.05 2.45 2.62 2.90 3.05 2.88 2.75 2.77 2.83 2.84 3.04 2.53 1.98 1.80 1.54 1.46
1.71 1.77 1.66 1.58 1.55 1.53 1.49 1.32 1.29 1.22 1.30 1.36 1.46 1.50 1.48 1.41 1.42 1.39 1.37 1.36 1.23 1.16 1.15 1.14 1.14 1.29 1.52 1.67 1.96 2.28 2.57 2.79 2.88 2.94 2.98 3.03 2.93 3.06 3.34 2.86 2.15 1.79 1.54
1.95 2.00 1.89 1.80 1.81 1.83 1.87 1.66 1.53 1.37 1.40 1.44 1.56 1.56 1.48 1.40 1.49 1.38 1.24 1.29 1.28 1.30 1.34 1.30 1.28 1.30 1.35 1.52 1.80 2.05 2.32 2.61 2.66 2.75 2.59 2.57 2.59 2.73 3.16 3.32 2.90 2.25 1.78

GEFSMA_prec_meanprecacc_300.txt.gz
Total_Precipitation_Accumulation
3.21 3.32 3.41 3.58 3.32 3.36 3.76 3.93 3.71 3.83 3.75 3.44 3.17 2.90 2.77 2.59 2.52 2.54 2.64 2.59 2.47 2.60 2.95 3.12 2.97 2.85 2.61 2.31 2.13 2.07 2.01 1.88 1.78 1.59 1.44 1.49 1.62 1.57 1.34 1.20 1.20 1.08 1.03
3.53 3.73 3.64 3.73 3.51 3.30 3.49 3.69 3.66 4.28 4.10 3.89 3.37 3.05 2.98 2.91 2.75 2.69 2.73 2.82 2.58 2.43 2.61 3.07 3.24 3.15 2.99 2.72 2.47 2.26 2.15 2.06 1.80 1.45 1.31 1.30 1.50 1.58 1.50 1.36 1.24 1.13 1.01
3.52 3.75 3.94 3.89 3.65 3.42 3.60 3.70 3.91 4.17 3.89 3.71 3.38 3.15 3.03 2.98 2.77 2.69 2.90 3.10 2.80 2.65 2.61 2.80 3.16 3.36 3.45 3.44 3.13 2.68 2.31 2.04 1.82 1.53 1.33 1.25 1.39 1.50 1.45 1.46 1.36 1.18 1.01
3.52 3.75 3.71 3.62 3.71 3.64 3.83 4.08 4.20 4.21 4.07 3.91 3.65 3.26 3.00 3.01 2.55 2.44 2.55 2.69 2.81 2.58 2.76 3.03 3.24 3.31 3.57 3.75 3.69 3.54 3.05 2.44 2.05 1.73 1.49 1.36 1.39 1.42 1.38 1.41 1.40 1.22 1.02
3.30 3.57 3.58 3.67 3.76 3.78 3.81 3.50 4.06 4.06 4.10 3.95 3.37 3.16 2.82 2.77 2.61 2.29 2.28 2.18 2.37 2.44 2.49 2.63 2.91 3.01 3.51 3.92 4.08 4.11 3.96 3.35 2.67 2.23 2.03 1.84 1.73 1.56 1.42 1.39 1.40 1.32 1.14
3.33 3.57 3.56 3.67 3.70 3.81 3.85 3.79 4.07 4.01 3.83 3.77 3.06 2.93 2.74 2.39 2.35 2.32 2.12 2.08 2.19 2.08 2.22 2.48 2.79 2.51 2.93 3.41 3.64 3.97 4.28 4.11 3.53 3.03 2.79 2.62 2.40 2.06 1.72 1.59 1.57 1.53 1.37
3.46 3.79 3.67 3.99 3.89 3.69 3.64 3.73 3.99 3.87 3.59 3.61 3.63 3.14 2.53 2.18 2.21 2.07 2.16 2.25 2.09 2.08 2.31 2.69 2.83 2.65 2.36 2.46 2.56 2.94 3.72 4.32 4.25 3.82 3.49 3.17 3.00 2.75 2.21 2.00 1.91 1.81 1.69
3.40 3.41 3.73 3.65 3.68 3.79 3.68 3.67 3.91 3.72 3.29 3.43 3.72 3.72 3.01 2.74 2.26 1.78 2.03 2.13 2.18 2.40 2.48 2.50 2.82 2.96 2.68 2.78 2.21 2.15 2.93 3.87 4.43 4.47 4.09 3.66 3.41 3.23 2.86 2.67 2.39 2.06 1.91
3.00 3.15 3.27 3.36 3.68 3.58 3.62 3.69 3.63 3.56 3.28 3.22 3.40 3.73 3.32 2.87 2.35 1.81 1.74 2.02 2.39 2.57 2.52 2.60 2.69 2.88 2.95 3.20 3.04 2.55 2.46 2.77 3.65 4.50 4.56 4.16 3.66 3.29 3.20 3.24 3.03 2.58 2.25
2.88 2.94 3.04 3.14 3.23 3.08 3.23 2.96 3.09 3.39 3.52 3.22 3.32 3.25 3.17 3.06 2.92 2.36 1.98 1.97 2.25 2.41 2.59 2.56 2.66 2.81 3.06 3.48 3.55 3.04 2.58 2.34 2.70 3.70 4.47 4.59 4.19 3.74 3.65 3.79 3.92 3.56 2.94
2.92 2.89 2.90 2.94 2.91 2.75 2.86 2.85 3.08 3.10 3.12 3.11 3.19 3.26 3.34 3.27 3.05 2.88 2.54 2.41 2.31 2.07 2.14 2.33 2.56 2.72 2.94 3.34 3.52 3.18 3.06 2.78 2.64 2.83 3.45 4.05 4.23 4.10 3.91 3.98 4.34 4.47 4.06
2.79 2.72 2.68 2.74 2.72 2.69 2.74 2.81 2.94 2.86 2.91 3.06 3.11 3.13 3.27 3.25 3.27 3.27 2.76 2.54 2.36 1.92 1.89 1.88 2.09 2.34 2.72 3.07 2.93 3.01 2.94 2.72 2.54 2.52 2.61 3.05 3.41 3.61 3.71 3.95 4.42 4.91 5.01
2.32 2.41 2.35 2.49 2.50 2.53 2.57 2.70 2.78 2.76 2.89 3.05 2.97 3.02 3.07 3.00 3.11 3.20 3.07 2.66 2.40 2.05 2.11 2.04 2.03 2.24 2.36 2.76 2.78 2.69 2.47 2.38 2.19 2.13 2.11 2.26 2.53 2.76 2.98 3.29 3.78 4.34 4.78
2.00 2.19 2.32 2.36 2.34 2.35 2.43 2.70 2.54 2.58 2.78 2.82 2.74 3.14 3.01 2.75 2.88 2.98 3.15 3.26 2.88 2.46 2.46 2.33 2.22 2.23 2.36 2.56 2.54 2.46 2.21 2.15 1.91 1.78 1.72 1.72 1.73 1.86 2.08 2.36 2.73 3.04 3.37
2.04 2.11 2.16 2.25 2.34 2.47 2.62 2.77 2.58 2.69 2.93 2.81 2.89 3.17 3.02 2.86 2.87 2.86 3.15 3.46 3.47 3.07 2.74 2.53 2.34 2.25 2.24 2.20 2.31 2.14 2.09 2.09 1.88 1.72 1.58 1.47 1.42 1.40 1.49 1.64 1.86 2.10 2.29
2.11 1.99 1.94 2.01 2.08 2.18 2.35 2.50 2.40 2.54 2.80 2.74 2.78 2.93 2.90 2.84 3.05 3.05 3.15 3.41 3.61 3.54 2.95 2.71 2.59 2.28 2.32 1.96 2.13 2.01 1.97 1.94 1.73 1.60 1.49 1.44 1.41 1.39 1.39 1.42 1.51 1.64 1.82
2.04 1.97 1.95 1.95 1.93 1.89 1.98 2.13 2.12 2.35 2.39 2.39 2.34 2.45 2.46 2.72 2.93 2.89 3.05 3.21 3.45 3.68 3.26 3.00 3.04 2.76 2.70 2.42 2.19 1.99 1.75 1.70 1.57 1.54 1.41 1.33 1.30 1.29 1.31 1.29 1.27 1.33 1.46
1.82 1.93 1.97 1.89 1.75 1.79 1.93 1.94 1.99 2.21 2.31 2.28 2.27 2.37 2.26 2.46 2.58 2.64 2.84 3.00 3.27 3.68 3.49 3.20 3.14 3.02 2.88 2.64 2.42 2.18 1.75 1.50 1.52 1.64 1.46 1.31 1.24 1.20 1.21 1.20 1.13 1.11 1.14
1.66 1.73 1.78 1.72 1.68 1.80 2.01 2.10 2.21 2.27 2.18 2.16 2.13 2.04 1.98 2.17 2.21 2.38 2.55 2.58 2.78 3.19 3.27 2.97 2.86 3.08 2.92 2.68 2.70 2.36 2.07 1.98 1.53 1.54 1.46 1.29 1.22 1.14 1.13 1.16 1.14 1.07 1.04
1.60 1.68 1.74 1.86 1.92 1.92 1.89 1.93 2.07 2.21 2.19 2.03 1.86 1.74 1.75 1.91 1.93 2.07 2.13 2.34 2.54 2.67 2.88 2.83 2.73 2.85 2.88 2.79 2.94 2.71 2.50 2.33 1.97 1.62 1.62 1.37 1.25 1.18 1.13 1.10 1.10 1.11 1.12
1.54 1.73 1.96 2.05 2.04 1.93 1.78 1.88 1.99 1.89 1.90 1.79 1.63 1.49 1.42 1.44 1.50 1.65 1.62 1.90 2.20 2.31 2.40 2.53 2.54 2.63 2.87 3.00 2.87 2.86 2.71 2.54 2.32 2.10 2.05 1.64 1.33 1.17 1.14 1.14 1.15 1.18 1.21
1.58 1.76 1.81 1.83 1.78 1.60 1.72 1.62 1.56 1.57 1.60 1.60 1.60 1.57 1.39 1.28 1.27 1.32 1.34 1.42 1.63 1.78 1.98 2.25 2.33 2.43 2.68 2.97 3.04 3.04 2.93 2.71 2.49 2.29 2.40 2.33 1.95 1.66 1.44 1.20 1.19 1.21 1.28
1.69 1.68 1.62 1.63 1.65 1.76 1.64 1.41 1.34 1.33 1.44 1.51 1.56 1.54 1.29 1.16 1.23 1.19 1.26 1.26 1.32 1.40 1.52 1.79 1.92 2.00 2.28 2.60 2.94 2.99 3.06 2.87 2.61 2.54 2.63 2.65 2.69 2.44 1.85 1.50 1.43 1.26 1.30
1.79 1.71 1.54 1.54 1.56 1.55 1.51 1.34 1.33 1.24 1.30 1.40 1.48 1.51 1.49 1.41 1.32 1.36 1.39 1.31 1.20 1.22 1.26 1.21 1.32 1.58 1.80 2.07 2.47 2.64 2.92 3.07 2.90 2.78 2.79 2.85 2.86 3.07 2.56 2.01 1.84 1.58 1.50
1.74 1.79 1.69 1.61 1.57 1.55 1.52 1.35 1.33 1.26 1.35 1.40 1.51 1.54 1.51 1.43 1.44 1.42 1.40 1.38 1.25 1.19 1.18 1.17 1.17 1.31 1.55 1.70 1.98 2.30 2.60 2.81 2.90 2.96 3.01 3.06 2.96 3.10 3.37 2.89 2.18 1.82 1.57
1.99 2.03 1.91 1.82 1.84 1.85 1.89 1.68 1.55 1.40 1.43 1.47 1.60 1.59 1.51 1.43 1.52 1.42 1.27 1.32 1.30 1.32 1.37 1.32 1.30 1.33 1.38 1.55 1.84 2.07 2.35 2.64 2.68 2.77 2.61 2.61 2.62 2.76 3.19 3.34 2.92 2.27 1.80

GEFSMA_prec_meanprecacc_306.txt.gz
Total_Precipitation_Accumulation
3.27 3.38 3.48 3.64 3.39 3.42 3.83 4.01 3.79 3.89 3.81 3.48 3.22 2.94 2.81 2.63 2.55 2.57 2.69 2.70 2.57 2.68 3.02 3.19 3.03 2.90 2.66 2.36 2.19 2.13 2.07 1.94 1.84 1.64 1.50 1.60 1.76 1.71 1.43 1.26 1.25 1.13 1.08
3.58 3.76 3.68 3.78 3.56 3.34 3.53 3.76 3.78 4.42 4.24 3.99 3.46 3.12 3.03 2.97 2.80 2.74 2.80 2.92 2.70 2.52 2.68 3.13 3.30 3.19 3.03 2.76 2.52 2.31 2.21 2.12 1.87 1.53 1.42 1.44 1.60 1.69 1.58 1.43 1.31 1.20 1.06
3.54 3.77 3.97 3.92 3.69 3.45 3.63 3.76 3.99 4.29 4.05 3.89 3.59 3.34 3.17 3.08 2.87 2.78 2.98 3.17 2.90 2.77 2.71 2.88 3.21 3.41 3.49 3.49 3.19 2.76 2.39 2.13 1.92 1.64 1.45 1.35 1.47 1.57 1.52 1.51 1.41 1.23 1.06
3.55 3.77 3.74 3.65 3.74 3.66 3.85 4.12 4.23 4.28 4.20 4.05 3.82 3.48 3.25 3.26 2.79 2.65 2.70 2.81 2.92 2.69 2.86 3.13 3.34 3.40 3.64 3.83 3.77 3.65 3.17 2.56 2.17 1.83 1.57 1.42 1.44 1.46 1.43 1.45 1.45 1.28 1.08
3.34 3.60 3.62 3.70 3.78 3.79 3.82 3.52 4.08 4.10 4.17 4.06 3.49 3.31 3.01 3.02 2.90 2.54 2.49 2.34 2.49 2.56 2.58 2.73 3.01 3.12 3.63 4.03 4.20 4.25 4.10 3.47 2.73 2.29 2.09 1.89 1.77 1.60 1.45 1.44 1.44 1.37 1.20
3.37 3.60 3.60 3.71 3.73 3.84 3.88 3.82 4.09 4.05 3.87 3.85 3.16 3.02 2.88 2.61 2.55 2.52 2.31 2.23 2.32 2.19 2.31 2.56 2.87 2.62 3.10 3.57 3.77 4.12 4.43 4.23 3.60 3.08 2.85 2.67 2.45 2.10 1.76 1.63 1.62 1.58 1.43
3.49 3.83 3.72 4.04 3.92 3.72 3.68 3.76 4.02 3.91 3.63 3.67 3.71 3.21 2.62 2.29 2.33 2.22 2.29 2.38 2.23 2.22 2.44 2.80 2.92 2.74 2.50 2.64 2.71 3.09 3.90 4.49 4.37 3.92 3.58 3.25 3.06 2.81 2.25 2.04 1.95 1.85 1.74
3.44 3.45 3.80 3.74 3.75 3.85 3.73 3.72 3.95 3.76 3.33 3.48 3.79 3.79 3.07 2.82 2.33 1.86 2.10 2.22 2.29 2.53 2.60 2.61 2.93 3.06 2.78 2.89 2.31 2.25 3.06 4.03 4.58 4.61 4.21 3.76 3.47 3.28 2.91 2.72 2.43 2.11 1.96
3.08 3.22 3.35 3.48 3.79 3.66 3.70 3.77 3.70 3.63 3.35 3.30 3.49 3.83 3.40 2.93 2.41 1.87 1.81 2.09 2.46 2.66 2.62 2.69 2.79 2.97 3.05 3.30 3.11 2.61 2.51 2.85 3.75 4.63 4.68 4.24 3.72 3.35 3.25 3.31 3.10 2.63 2.30
3.02 3.07 3.15 3.28 3.45 3.28 3.37 3.05 3.17 3.47 3.60 3.31 3.42 3.33 3.24 3.11 2.98 2.41 2.03 2.03 2.31 2.48 2.67 2.65 2.76 2.91 3.16 3.58 3.63 3.10 2.64 2.40 2.76 3.79 4.58 4.69 4.28 3.80 3.71 3.86 4.00 3.63 2.99
3.04 3.02 3.02 3.05 3.04 2.87 2.95 2.91 3.15 3.16 3.18 3.17 3.25 3.32 3.41 3.32 3.10 2.92 2.58 2.45 2.37 2.15 2.24 2.44 2.67 2.81 3.03 3.43 3.61 3.25 3.11 2.84 2.70 2.91 3.53 4.13 4.30 4.16 3.96 4.03 4.39 4.52 4.11
2.84 2.78 2.74 2.78 2.77 2.75 2.80 2.87 3.01 2.92 2.96 3.11 3.16 3.18 3.33 3.31 3.33 3.32 2.80 2.59 2.41 1.98 1.96 1.97 2.18 2.43 2.82 3.15 3.02 3.08 3.00 2.78 2.60 2.58 2.67 3.10 3.45 3.66 3.76 4.00 4.48 4.97 5.07
2.32 2.43 2.38 2.53 2.55 2.60 2.64 2.75 2.84 2.81 2.94 3.09 3.01 3.07 3.13 3.07 3.18 3.27 3.14 2.69 2.42 2.07 2.15 2.10 2.09 2.29 2.42 2.82 2.85 2.76 2.54 2.45 2.24 2.18 2.15 2.30 2.56 2.80 3.03 3.35 3.84 4.39 4.84
2.00 2.20 2.34 2.37 2.36 2.39 2.48 2.74 2.59 2.63 2.82 2.85 2.77 3.18 3.06 2.81 2.94 3.04 3.20 3.30 2.90 2.48 2.48 2.35 2.25 2.26 2.38 2.59 2.58 2.51 2.26 2.20 1.95 1.82 1.75 1.74 1.75 1.88 2.11 2.40 2.77 3.08 3.42
2.05 2.12 2.17 2.27 2.36 2.49 2.66 2.81 2.64 2.75 2.97 2.84 2.94 3.21 3.07 2.90 2.91 2.90 3.18 3.49 3.50 3.09 2.76 2.54 2.36 2.28 2.26 2.22 2.33 2.16 2.12 2.14 1.92 1.76 1.62 1.50 1.44 1.42 1.51 1.66 1.89 2.14 2.33
2.12 2.00 1.95 2.02 2.09 2.20 2.39 2.55 2.45 2.60 2.84 2.80 2.84 2.98 2.94 2.88 3.08 3.07 3.18 3.44 3.65 3.58 2.97 2.72 2.61 2.29 2.34 1.97 2.14 2.02 1.99 1.97 1.76 1.63 1.53 1.48 1.44 1.42 1.42 1.45 1.54 1.68 1.85
2.05 1.98 1.96 1.96 1.93 1.91 2.00 2.16 2.16 2.38 2.43 2.44 2.41 2.50 2.50 2.75 2.96 2.92 3.08 3.25 3.49 3.73 3.31 3.03 3.06 2.77 2.72 2.44 2.20 2.00 1.77 1.72 1.60 1.57 1.44 1.36 1.34 1.33 1.35 1.33 1.31 1.37 1.50
1.83 1.93 1.97 1.89 1.76 1.80 1.95 1.96 2.01 2.24 2.34 2.32 2.32 2.42 2.29 2.49 2.62 2.69 2.89 3.04 3.30 3.71 3.54 3.26 3.18 3.05 2.90 2.66 2.44 2.20 1.76 1.53 1.55 1.67 1.49 1.35 1.29 1.25 1.26 1.24 1.18 1.15 1.18
1.66 1.74 1.78 1.73 1.69 1.81 2.02 2.11 2.23 2.29 2.19 2.18 2.16 2.09 2.03 2.22 2.27 2.45 2.62 2.64 2.84 3.24 3.32 3.02 2.90 3.12 2.97 2.75 2.76 2.42 2.11 2.01 1.56 1.58 1.50 1.32 1.26 1.18 1.17 1.20 1.18 1.11 1.07
1.61 1.68 1.74 1.87 1.93 1.93 1.90 1.94 2.09 2.23 2.21 2.05 1.89 1.78 1.80 1.97 1.98 2.14 2.21 2.41 2.60 2.73 2.93 2.89 2.78 2.90 2.91 2.82 2.97 2.75 2.55 2.38 2.01 1.65 1.64 1.39 1.27 1.20 1.16 1.13 1.13 1.14 1.15
1.55 1.74 1.97 2.06 2.05 1.95 1.80 1.90 2.01 1.91 1.92 1.82 1.66 1.53 1.48 1.49 1.56 1.71 1.68 1.96 2.26 2.36 2.44 2.57 2.59 2.68 2.90 3.03 2.90 2.89 2.73 2.56 2.35 2.12 2.06 1.65 1.35 1.18 1.15 1.15 1.17 1.21 1.24
1.60 1.78 1.82 1.85 1.80 1.61 1.75 1.65 1.58 1.59 1.61 1.62 1.63 1.61 1.44 1.34 1.32 1.38 1.40 1.48 1.69 1.83 2.03 2.29 2.37 2.47 2.71 2.99 3.07 3.07 2.96 2.73 2.51 2.32 2.42 2.36 1.96 1.68 1.45 1.21 1.21 1.23 1.30
1.71 1.70 1.64 1.66 1.67 1.78 1.67 1.44 1.37 1.35 1.46 1.54 1.60 1.58 1.33 1.21 1.28 1.23 1.32 1.31 1.38 1.45 1.57 1.83 1.96 2.03 2.30 2.63 2.98 3.03 3.09 2.90 2.65 2.58 2.67 2.69 2.73 2.47 1.87 1.52 1.45 1.27 1.32
1.82 1.73 1.57 1.57 1.59 1.57 1.55 1.38 1.38 1.27 1.32 1.43 1.50 1.55 1.53 1.47 1.38 1.41 1.43 1.36 1.24 1.26 1.31 1.25 1.35 1.61 1.83 2.11 2.51 2.68 2.96 3.11 2.93 2.82 2.84 2.91 2.91 3.12 2.60 2.05 1.89 1.62 1.53
1.76 1.82 1.73 1.65 1.61 1.59 1.56 1.40 1.39 1.30 1.37 1.41 1.53 1.57 1.55 1.47 1.48 1.46 1.44 1.42 1.28 1.22 1.22 1.22 1.21 1.35 1.58 1.74 2.04 2.36 2.65 2.87 2.94 3.00 3.06 3.12 3.01 3.15 3.41 2.92 2.23 1.89 1.62
2.01 2.06 1.94 1.86 1.88 1.90 1.94 1.73 1.62 1.46 1.47 1.50 1.62 1.62 1.54 1.46 1.56 1.46 1.31 1.35 1.33 1.35 1.40 1.35 1.35 1.38 1.42 1.59 1.88 2.13 2.41 2.70 2.74 2.82 2.66 2.67 2.69 2.82 3.25 3.40 2.98 2.33 1.88